{"data":{"norad_id":59922,"epoch":"2026-09-21T10:08:14.984160Z","epoch_age_seconds":94773,"freshness":"FRESH","line1":"1 59922U 24106A   26264.42239565  .00000570  00000+0  30239-4 0  9998","line2":"2 59922  43.0012 307.4667 0001942 278.7139  81.3493 15.27573324130499","mean_motion":15.27573324,"eccentricity":0.0001942,"inclination_deg":43.0012,"raan_deg":307.4667,"arg_perigee_deg":278.7139,"mean_anomaly_deg":81.3493,"bstar":3.0239e-5,"rev_number":13049,"period_min":94.267160690481,"perigee_km":481.73664023614,"apogee_km":484.40153268013,"semimajor_km":6861.2060864581,"source":"CELESTRAK","updated_at":"2026-09-22T09:00:49.110541Z"}}